sat.trackr.live / text

‹ back to catalog

QIANFAN-59

NORAD 62789 · 2025-016E

PAYLOAD ACTIVE UNKNOWN

§ Identity

Operator
Country
PRC
Launch date
2025-01-23
Launch site
TAISC
Launch vehicle
Mass (kg)
RCS (m²)

External: N2YO · Heavens-Above · Gunter

§ Orbital elements

Epoch: 2026-09-22T22:13:56.462016Z

Period
106.59 min
Inclination
88.9672°
Eccentricity
0.0012592
Mean motion
13.51024828 rev/d
Perigee alt
1,059.1 km
Apogee alt
1,077.9 km
Semi-major
7,446.6 km
B*
6.1831e-5
RAAN
73.5924°
Arg perigee
242.5564°
Mean anomaly
117.4307°
Rev number
8,561

§ Raw data

QIANFAN-591 62789U 25016E   26265.92634794  .00000052  00000+0  61831-4 0  99902 62789  88.9672  73.5924 0012592 242.5564 117.4307 13.51024828 85618

JSON: /api/v1/satellites/62789 · /tle

For live sub-satellite position, see the globe view (requires WebGL).

§ Visibility from observer

Set your observer location to see the next 7 days of passes ≥ 10°. The values pass through the URL so the page stays shareable.

No JS? Fill the form by hand. The geolocation button needs JavaScript.